Regional Weather Roundup
Issued by NWS

Home | Current Version | Previous Version | Text Only | Print | Product List | Glossary Off
Versions: 1 2 3 4 5 6 7 8 9 10 11 12 13 14 15 16 17 18 19 20 21 22 23 24 25 26 27 28 29 30 31 32 33 34 35 36 37 38 39 40 41 42 43 44 45 46 47 48 49 50

000
ASUS43 KDTX 300701
RWRMI
MICHIGAN HOURLY REGIONAL WEATHER ROUNDUP
NATIONAL WEATHER SERVICE DETROIT/PONTIAC MI
300 AM EDT WED JUL 30 2014

NOTE: "FAIR" INDICATES FEW OR NO CLOUDS BELOW 12,000 FEET WITH NO
SIGNIFICANT WEATHER AND/OR OBSTRUCTION TO VISIBILITY.

MIZ047>049-052>055-059>063-066>070-074>076-081>083-300800-
SOUTHEAST LOWER MICHIGAN

CITY           SKY/WX    TMP DP  RH WIND       PRES   REMARKS
ADRIAN         MOCLDY    57  56  96 CALM      30.00R
ALMA           PTCLDY    54  53  96 CALM      29.97S
ANN ARBOR      PTCLDY    54  51  90 W6        29.97S FOG
BAD AXE        CLEAR     53  53 100 CALM      29.95S FOG
CARO           CLEAR     56  56  98 CALM      29.95S
DETROIT CITY   CLEAR     63  56  78 W6        29.95F
DETROIT        CLOUDY    58  56  93 SW5       29.97S
FLINT          PTCLDY    57  54  89 W6        29.96S
GROSSE ILE     PTCLDY    61  57  88 W3        29.95S
HILLSDALE      MOCLDY    59  58  96 W3        30.00S
HOWELL         PTCLDY    55  54  97 W6        29.98R

CITY           SKY/WX    TMP DP  RH WIND       PRES   REMARKS
JACKSON        MOCLDY    58  54  86 W5        29.99S
LAMBERTVILLE   MOCLDY    59  55  88 W3        29.98S
LANSING        PTCLDY    57  54  89 W5        29.98F
LAPEER         FAIR      56  55  94 CALM      29.96S
MASON          MOCLDY    57  54  89 W3        29.98S
MONROE         PTCLDY    57  55  94 W3        29.96S
MT. CLEMENS    MOCLDY    59  57  91 E2        29.95R
PONTIAC        CLEAR     58  56  93 W3        29.95F
PORT HOPE        N/A     58  55  90 W3        29.92S
PORT HURON     FOG       54  54 100 CALM      29.94F VSB 1/4
TRI CITIES     CLEAR     58  55  90 W3        29.97S
TROY           MOCLDY    60  58  94 CALM      29.96S
SAGINAW HB     PTCLDY    55  55 100 CALM      29.96S FOG
$$
MIZ043>046-050>051-056>058-064>065-071>073-077>080-300800-
SOUTHWEST LOWER MICHIGAN

CITY           SKY/WX    TMP DP  RH WIND       PRES   REMARKS
BATTLE CREEK   MOCLDY    59  55  87 W3        29.99F
BENTON HARBOR  PTCLDY    57  56  96 CALM      29.98F
BIG RAPIDS     PTCLDY    55  55 100 W3        29.97F
COLDWATER      CLOUDY    59  57  94 CALM      30.00S
FREMONT        FAIR      52  52 100 CALM      29.98S FOG
HOLLAND        PTCLDY    58  55  90 W3        29.99F
GRAND RAPIDS   PTCLDY    59  57  93 W6        29.98F
IONIA          FAIR      56  54  93 CALM      29.97F
KALAMAZOO      MOCLDY    61  57  87 NW5       29.99F
LUDINGTON      MOCLDY    55  53  95 CALM      29.97S
MARSHALL       MOCLDY    54  52  94 CALM      29.99S
MOUNT PLEASANT PTCLDY    56  54  94 CALM      29.96F
MUSKEGON       CLEAR     54  51  90 SW3       29.98F
SOUTH HAVEN    PTCLDY    56  56 100 CALM      29.99S FOG
$$
MIZ016>042-300800-
NORTHERN LOWER MICHIGAN

CITY           SKY/WX    TMP DP  RH WIND       PRES   REMARKS
ALPENA         PTCLDY    52  50  93 CALM      29.94F
BEAVER ISLAND  CLEAR     54  54  99 CALM      29.97F
BELLAIRE       FOG       51  49  95 CALM      29.97S VSB 3/4
CADILLAC       CLOUDY    54  54 100 CALM      29.98S
CHARLEVOIX     CLEAR     59  54  84 N6        30.00S
FRANKFORT      CLOUDY    58  55  91 CALM      29.98S
GAYLORD        FOG       52  51  97 W5        29.97S VSB 1/2
GRAYLING       CLEAR     51  51 100 W3        29.98F FOG
HARBOR SPRINGS CLEAR     55  51  85 CALM      29.96S
HOUGHTON LAKE  PTCLDY    55  53  93 NW6       29.98S
MANISTEE       CLOUDY    55  52  88 CALM      29.98S
OSCODA         MOCLDY    54  53  96 NW3       29.93F
PELLSTON       CLEAR     50  49  96 CALM      29.96F
ROGERS CITY    CLEAR     52  51  98 W3        29.96S
TRAVERSE CITY  MOCLDY    57  54  89 CALM      29.97S
$$
MIZ007>008-015-300800-
EASTERN UPPER MICHIGAN

CITY           SKY/WX    TMP DP  RH WIND       PRES   REMARKS
KINROSS        CLOUDY    50  48  93 NW5       29.96S VSB 1/2
MACKINAC ISLAN PTCLDY    51  50  97 NW5       29.96S
NEWBERRY       FOG       49  49  99 W12       29.96F VSB 1/2
S. S. MARIE    FOG       49  48  97 CALM      29.95S VSB 1/2
MUNISING         N/A     54  50  86 VRB3      29.98S
$$
MIZ004>006-011>014-085-300800-
CENTRAL UPPER MICHIGAN

CITY           SKY/WX    TMP DP  RH WIND       PRES   REMARKS
MANISTIQUE     FOG       50  50  99 N3        29.98S VSB 1/4
ESCANABA       CLEAR     52  46  82 NW3       29.99F
MENOMINEE      CLEAR     57  54  88 N3        29.99S
SAWYER-GWINN   CLEAR     49  48  95 N3        30.00S
$$
MIZ001>003-009>011-084-300800-
WESTERN UPPER MICHIGAN

CITY           SKY/WX    TMP DP  RH WIND       PRES   REMARKS
IRON MOUNTAIN  CLEAR     50  47  89 NW5       30.01S
HOUGHTON       CLEAR     49  45  86 NW3       30.03S
COPPER HARBOR    N/A     50  46  86 W3        30.01F
$$

ABBREVIATIONS USED IN REMARKS
   TC - TEMPERATURE IN CELSIUS
  WCI - WIND CHILL INDEX
   HX - HEAT INDEX
  VSB - VISIBILITY



USA.gov is the U.S. government's official web portal to all federal, state and local government web resources and services.